Location: Beaver Brook Station
(42.3793°N, 71.2203°W)
Time: 06:59:37
(UTC+00:00)

H-2A R/B - Pass Details

Date: 29 October 2020
Orbit: 733 x 837 km, 98.2° (Epoch: 23 November)

Event Time Altitude Azimuth Distance (km) Brightness Sun altitude
Exits shadow 22:58:23 - 138° (SE) 2,956 4.7 -14.7°
Reaches altitude 10° 22:59:49 10° 133° (SE) 2,433 4.2 -15.0°
Maximum altitude 23:04:43 37° 68° (ENE) 1,288 2.7 -15.9°
Drops below altitude 10° 23:09:41 10° 3° (N) 2,459 4.5 -16.8°
Sets 23:12:12 0° 355° (N) 3,394 5.4 -17.3°
